Regional Weather Roundup
Issued by NWS

Home | Current Version | Previous Version | Graphics & Text | Print | Product List | Glossary On
Versions: 1 2 3 4 5 6 7 8 9 10 11 12 13 14 15 16 17 18 19 20 21 22 23 24 25 26 27 28 29 30 31 32 33 34 35 36 37 38 39 40 41 42 43 44 45 46 47 48 49 50
991
ASUS43 KOAX 182302
RWRNE

WEATHER ROUNDUP FOR NEBRASKA
NATIONAL WEATHER SERVICE OMAHA NE
500 PM CST WED JAN 18 2017

NOTES: SATELLITE DATA IS BEING USED TO AUGMENT CLOUD COVER ABOVE
       12000 FEET.
       "FAIR" INDICATES FEW OR NO CLOUDS BELOW 12,000 FEET WITH NO
       SIGNIFICANT WEATHER AND/OR OBSTRUCTIONS TO VISIBILITY.

  * THESE STATIONS DO NOT REPORT WEATHER SUCH AS RAIN...SNOW OR FOG.

NEZ001>004-019>022-054>056-190000-
NEBRASKA PANHANDLE

CITY           SKY/WX    TMP DP  RH WIND       PRES   REMARKS
SCOTTSBLUFF    CLOUDY    48  28  46 E3        29.73F
ALLIANCE       CLOUDY    48  24  39 CALM      29.72F
CHADRON        CLOUDY    38  25  59 W6        29.69F WCI  33
KIMBALL        CLEAR     48  31  52 SW7       29.75F
SIDNEY         CLEAR     45  32  60 S10       29.75F
$$

NEZ057>060-069>072-079>082-190000-
SOUTHWEST NEBRASKA

CITY           SKY/WX    TMP DP  RH WIND       PRES   REMARKS
NORTH PLATTE   CLOUDY    42  32  67 S8        29.80S
IMPERIAL       CLOUDY    40  29  64 S6        29.80S
LEXINGTON      CLEAR     44  37  77 S3        29.82F
MCCOOK         CLEAR     46  36  68 S12       29.82S
OGALLALA       CLEAR     47  30  51 S5        29.78S
$$

NEZ005>010-023>029-035>040-094-190000-
NORTH CENTRAL NEBRASKA

CITY           SKY/WX    TMP DP  RH WIND       PRES   REMARKS
VALENTINE      CLOUDY    49  21  33 S8        29.71S
AINSWORTH      CLEAR     50  24  35 S9        29.73S
BROKEN BOW     CLOUDY    40  33  76 SW13      29.80S WCI  32
O`NEILL        CLEAR     48  37  66 S9        29.78R
ORD            CLEAR     39  33  79 SW3       29.81R
THEDFORD       CLEAR     50  25  36 S9G16     29.76S
$$

NEZ041-046>049-061>064-073>077-083>087-190000-
SOUTH CENTRAL NEBRASKA

CITY           SKY/WX    TMP DP  RH WIND       PRES   REMARKS
GRAND ISLAND   CLOUDY    45  40  82 S14       29.84F
AURORA         CLEAR     44  40  86 S8        29.86S
HASTINGS       CLEAR     47  41  80 S9        29.86F
HEBRON         CLEAR     49  38  67 S6        29.90S
HOLDREGE       CLEAR     44  37  74 SW13      29.83F
KEARNEY *      CLEAR     46  37  71 S13       29.84S
YORK           CLOUDY    45  39  81 S10       29.87F
$$

NEZ011>018-030>034-042>045-190000-
NORTHEAST NEBRASKA

CITY           SKY/WX    TMP DP  RH WIND       PRES   REMARKS
NORFOLK        CLEAR     44  38  79 S7        29.82S
ALBION         CLEAR     43  38  83 S7        29.82S
BLAIR          CLEAR     49  39  70 S15       29.88F
FREMONT        CLEAR     48  38  69 S14       29.88S
TEKAMAH        CLEAR     45  38  76 S10       29.88S
WAYNE          CLEAR     45  39  81 S13       29.84R
$$

NEZ050>053-065>068-078-088>093-190000-
SOUTHEAST NEBRASKA

CITY           SKY/WX    TMP DP  RH WIND       PRES   REMARKS
LINCOLN        CLEAR     48  39  71 S12       29.90F
OMAHA EPPLEY   CLEAR     46  39  76 SE13      29.90F
BEATRICE       CLEAR     50  39  66 S9        29.91S
FALLS CITY     CLEAR     46  39  76 SE9       29.95F
NEBRASKA CITY  CLEAR     47  35  63 S10       29.93F
PLATTSMOUTH    CLEAR     48  35  61 S10       29.91F
$$

NEZ044-045-051>053-067-190000-
OMAHA AREA

CITY           SKY/WX    TMP DP  RH WIND       PRES   REMARKS
OMAHA EPPLEY   CLEAR     46  39  76 SE13      29.90F
BLAIR          CLEAR     49  39  70 S15       29.88F
FREMONT        CLEAR     48  38  69 S14       29.88S
MILLARD        CLEAR     52  40  65 S5        29.91S
OFFUTT AFB       N/A    N/A N/A N/A S9          N/A
PLATTSMOUTH    CLEAR     48  35  61 S10       29.91F
WAHOO          FAIR      44  37  77 S12       29.88F
$$




USA.gov is the U.S. government's official web portal to all federal, state and local government web resources and services.